Regional Weather Roundup
Issued by NWS

Home | Current Version | Previous Version | Text Only | Print | Product List | Glossary Off
Versions: 1 2 3 4 5 6 7 8 9 10 11 12 13 14 15 16 17 18 19 20 21 22 23 24 25 26 27 28 29 30 31 32 33 34 35 36 37 38 39 40 41 42 43 44 45 46 47 48 49 50

000
ASUS43 KLOT 281810
RWRIL

ILLINOIS REGIONAL WEATHER ROUNDUP
NATIONAL WEATHER SERVICE CHICAGO/ROMEOVILLE IL
1200 PM CST WED JAN 28 2015

NOTE: "FAIR" INDICATES FEW OR NO CLOUDS BELOW 12,000 FEET WITH NO
SIGNIFICANT WEATHER AND/OR OBSTRUCTIONS TO VISIBILITY.

* THESE STATIONS ARE NOT UNDER NWS QUALITY CONTROL. THEY ALSO MAY NOT
  REPORT WEATHER SUCH AS PRECIPITATION OR FOG.

ILZ001-002-007-009-015-016-024-281900-
NORTHWEST ILLINOIS

CITY           SKY/WX    TMP DP  RH WIND       PRES   REMARKS
MOLINE         FAIR      32  24  72 SE15G23   30.06F WCI  22
6HR MIN TEMP:  24; 6HR MAX TEMP:  32;

STERLING*      FAIR      32  19  59 SE8G16    30.12F WCI  25
SAVANNA*       FAIR      32  22  65 SE12      30.11F WCI  23
$$

ILZ003-004-008-010-011-017-018-281900-
NORTH CENTRAL ILLINOIS

CITY           SKY/WX    TMP DP  RH WIND       PRES   REMARKS
ROCKFORD       CLOUDY    31  20  63 S18       30.16F WCI  19
6HR MIN TEMP:  21; 6HR MAX TEMP:  31;

FREEPORT*      FAIR      30  20  64 S14       30.14F WCI  20
ROCHELLE*      FAIR      29  22  75 SE17      30.16F WCI  17
DE KALB*       FAIR      28  20  72 S18       30.16F WCI  15
PERU*          FAIR      32  22  66 SE15      30.15F WCI  22
$$

ILZ005-006-012>014-019>023-281900-
NORTHEAST ILLINOIS

CITY           SKY/WX    TMP DP  RH WIND       PRES   REMARKS
CHICAGO-OHARE  PTSUNNY   32  18  56 S12       30.18F WCI  23
6HR MIN TEMP:  19; 6HR MAX TEMP:  32;

CHICAGO-MIDWAY PTSUNNY   33  16  49 S16       30.20F WCI  23
6HR MIN TEMP:  24; 6HR MAX TEMP:  34;

AURORA         SUNNY     32  20  61 S18       30.18F WCI  20
6HR MIN TEMP:  19; 6HR MAX TEMP:  32;

LANSING*       MOSUNNY   32  20  61 S15       30.23F WCI  22
JOLIET*        MOSUNNY   31  19  60 S10       30.20F WCI  23
WAUKEGAN       MOSUNNY   31  16  54 SE13      30.17F WCI  21
6HR MIN TEMP:  14; 6HR MAX TEMP:  31;

DUPAGE AIRPORT MOSUNNY   31  18  58 S15       30.17F WCI  20
6HR MIN TEMP:  17; 6HR MAX TEMP:  31;

KANKAKEE*      MOSUNNY   32  22  65 SE12      30.22F WCI  23
WHEELING       MOSUNNY   32  16  51 S15       30.20F WCI  22
6HR MIN TEMP:  18; 6HR MAX TEMP:  32;

MORRIS*        SUNNY     31  24  74 S15G21    30.19F WCI  21
ROMEOVILLE*    MOSUNNY   31  20  62 S17       30.19F WCI  20
NORTHERLY ISL    N/A     32  14  47 S16         N/A  WCI  21
$$

LMZ740>746-281900-
SOUTHERN LAKE MICHIGAN

STATION/POSITION SKY/WX   TEMP    WIND        PRES    VSBY  WAVE
                          AIR SEA DIR/SP/G                  HT/PER
                          (F)     (DEG/KT/KT) (MB)    (MI)  (FT/S)
WAUKEGAN HARBOR            31     150/ 13/ 15   N/A
HARRISON CRIB              29     170/ 18/ 21   N/A
BURNHAM HARBOR             32     160/ 15/ 17   N/A
CALUMET HARBOR             31     170/ 11/ 15   N/A
MICHIGAN CITY              29     140/ 13/ 17   N/A
$$

ILZ025>027-034>036-040-047-049-050-058-095>099-281900-
WEST-CENTRAL ILLINOIS

CITY           SKY/WX    TMP DP  RH WIND       PRES   REMARKS
QUINCY         FAIR      41  30  65 S17G24    30.04F
GALESBURG*     FAIR      34  27  75 SE14G26   30.05F WCI  25
MACOMB*        FAIR      37  32  82 SE18G24   30.08F WCI  27
JACKSONVILLE*  FAIR      41  31  67 SE17G23   30.11F
PITTSFIELD*    FAIR      40  32  73 SE16      30.09F
$$

ILZ028>032-037-038-041>044-048-051>054-059>061-281900-
CENTRAL ILLINOIS

CITY           SKY/WX    TMP DP  RH WIND       PRES   REMARKS
PONTIAC        FAIR      34  26  73 SE17      30.19F WCI  23
BLOOMINGTON    FAIR      36  28  73 S22       30.16F WCI  25
DECATUR        FAIR      36  26  67 S18       30.19F WCI  26
PEORIA         FAIR      37  27  67 SE15      30.12F WCI  28
6HR MIN TEMP:  26; 6HR MAX TEMP:  37;

LACON*         FAIR      33  23  67 SE14      30.13F WCI  23
LINCOLN*       FAIR      37  29  73 SE18G24   30.17F WCI  27
SPRINGFIELD    FAIR      39  29  67 SE17G25   30.15F WCI  30
6HR MIN TEMP:  26; 6HR MAX TEMP:  39;

TAYLORVILLE    FAIR      36  30  80 SE16      30.18F WCI  26
$$

ILZ033-039-045-046-055>057-062-063-281900-
EAST-CENTRAL ILLINOIS

CITY           SKY/WX    TMP DP  RH WIND       PRES   REMARKS
CHAMPAIGN      SUNNY     33  25  72 SE15      30.21F WCI  23
DANVILLE*      SUNNY     32  22  66 S10       30.21F WCI  23
RANTOUL*       SUNNY     34  26  72 S16       30.21F WCI  23
MATTOON        FAIR      34  23  64 S20       30.21F WCI  23
PARIS*         MOSUNNY   33  24  69 SE13      30.26F WCI  24
$$

ILZ079-100>102-281900-
SOUTHWEST ILLINOIS

CITY           SKY/WX    TMP DP  RH WIND       PRES   REMARKS
ALTON          MOSUNNY   41  30  65 S16       30.16F
BELLEVILLE     FAIR      42  31  65 SE14G22   30.18F
CAHOKIA*       FAIR      42  30  62 S17G24    30.18F
SPARTA*        FAIR      38  29  69 S15       30.23F WCI  30
$$

ILZ064>066-069>071-074>076-080>082-084>086-088>090-092>094-281900-
SOUTH-CENTRAL ILLINOIS

CITY           SKY/WX    TMP DP  RH WIND       PRES   REMARKS
CARBONDALE     FAIR      42  29  59 S12       30.25F
6HR MIN TEMP:  21; 6HR MAX TEMP:  42;

CAIRO*         FAIR      42  32  67 S6        30.28F
EFFINGHAM*     FAIR      38  25  60 SE17      30.24F WCI  28
MARION         SUNNY     41  30  65 S12       30.27F
MT. VERNON     FAIR      39  28  65 SE10G18   30.25F WCI  32
CENTRALIA*     FAIR      39  29  68 SE10      30.23F WCI  32
SALEM*         FAIR      40  29  66 S15G21    30.23F
METROPOLIS*    FAIR      42  32  67 SE7       30.27F
$$

ILZ067-068-072-073-078-083-087-091-281900-
SOUTHEAST ILLINOIS

CITY           SKY/WX    TMP DP  RH WIND       PRES   REMARKS
LAWRENCEVILLE  SUNNY     37  23  56 SE13      30.29F WCI  29
FLORA*         SUNNY     38  30  74 S13       30.26F WCI  30
FAIRFIELD*     FAIR      38  30  72 SE12      30.25F WCI  31
HARRISBURG*    FAIR      41  31  66 SE10      30.28F
ROBINSON*      SUNNY     35  25  67 S10       30.30F WCI  27
CARMI*         FAIR      40  31  70 SE13      30.27F
$$

ABBREVIATIONS USED IN REMARKS
   TC - TEMPERATURE IN CELSIUS
  WCI - WIND CHILL INDEX
   HX - HEAT INDEX
  VSB - VISIBILITY
$$



USA.gov is the U.S. government's official web portal to all federal, state and local government web resources and services.